Time,TemperatureF,DewpointF,PressureIn,WindDirection,WindDirectionDegrees,WindSpeedMPH,WindSpeedGustMPH,Humidity,HourlyPrecipIn,Conditions,Clouds,dailyrainin,SoftwareType,DateUTC
2013-02-19 00:04:00,40.5,0.0,29.90,ENE,62,6.5,8.6,0,0.00,,,0.00,WUHU216PEETBRO,2013-02-19 08:04:00,
2013-02-19 00:09:00,40.4,0.0,29.90,ESE,121,4.6,8.6,0,0.00,,,0.00,WUHU216PEETBRO,2013-02-19 08:09:00,
2013-02-19 00:14:00,40.1,0.0,29.90,ENE,76,3.4,7.1,0,0.00,,,0.00,WUHU216PEETBRO,2013-02-19 08:14:00,
2013-02-19 00:19:00,40.1,0.0,29.90,SE,127,5.3,7.1,0,0.00,,,0.00,WUHU216PEETBRO,2013-02-19 08:19:00,
2013-02-19 00:24:00,40.1,0.0,29.90,ESE,111,4.5,7.0,0,0.00,,,0.00,WUHU216PEETBRO,2013-02-19 08:24:00,
2013-02-19 00:29:00,40.2,0.0,29.90,East,95,4.6,6.3,0,0.00,,,0.00,WUHU216PEETBRO,2013-02-19 08:29:00,
2013-02-19 00:34:00,40.1,0.0,29.90,ESE,122,4.9,8.0,0,0.00,,,0.00,WUHU216PEETBRO,2013-02-19 08:34:00,
2013-02-19 00:39:00,40.3,0.0,29.90,SE,129,4.8,8.0,0,0.00,,,0.00,WUHU216PEETBRO,2013-02-19 08:39:00,
2013-02-19 00:44:00,40.2,0.0,29.90,ESE,122,4.5,7.2,0,0.00,,,0.00,WUHU216PEETBRO,2013-02-19 08:44:00,
2013-02-19 00:49:00,40.2,0.0,29.89,ESE,103,4.7,6.0,0,0.00,,,0.00,WUHU216PEETBRO,2013-02-19 08:49:00,
2013-02-19 00:54:00,40.2,0.0,29.89,South,176,3.4,6.9,0,0.00,,,0.00,WUHU216PEETBRO,2013-02-19 08:54:00,
2013-02-19 00:59:00,40.0,0.0,29.89,ESE,108,5.5,6.9,0,0.00,,,0.00,WUHU216PEETBRO,2013-02-19 08:59:00,
2013-02-19 01:04:00,40.2,0.0,29.89,East,100,3.4,8.5,0,0.00,,,0.00,WUHU216PEETBRO,2013-02-19 09:04:00,
2013-02-19 01:09:00,40.1,0.0,29.89,East,84,3.2,8.5,0,0.00,,,0.00,WUHU216PEETBRO,2013-02-19 09:09:00,
2013-02-19 01:14:00,40.1,0.0,29.89,SE,127,4.3,5.9,0,0.00,,,0.00,WUHU216PEETBRO,2013-02-19 09:14:00,
2013-02-19 01:19:00,39.5,0.0,29.90,SSW,204,4.8,11.4,0,0.00,,,0.00,WUHU216PEETBRO,2013-02-19 09:19:00,
2013-02-19 01:24:00,39.2,0.0,29.89,SSE,151,6.5,11.7,0,0.00,,,0.00,WUHU216PEETBRO,2013-02-19 09:24:00,
2013-02-19 01:29:00,39.2,0.0,29.89,SE,134,4.4,11.7,0,0.00,,,0.00,WUHU216PEETBRO,2013-02-19 09:29:00,
2013-02-19 01:34:00,39.2,0.0,29.88,South,169,5.3,10.7,0,0.00,,,0.00,WUHU216PEETBRO,2013-02-19 09:34:00,
2013-02-19 01:39:00,39.0,0.0,29.89,ESE,110,0.0,9.8,0,0.00,,,0.00,WUHU216PEETBRO,2013-02-19 09:39:00,
2013-02-19 01:44:00,39.2,0.0,29.89,SSW,193,5.7,9.8,0,0.00,,,0.00,WUHU216PEETBRO,2013-02-19 09:44:00,
2013-02-19 01:49:00,39.4,0.0,29.89,SE,139,3.4,9.1,0,0.00,,,0.00,WUHU216PEETBRO,2013-02-19 09:49:00,
2013-02-19 01:54:00,39.4,0.0,29.88,East,84,4.2,6.8,0,0.00,,,0.00,WUHU216PEETBRO,2013-02-19 09:54:00,
2013-02-19 01:59:00,39.4,0.0,29.88,East,91,5.6,6.8,0,0.00,,,0.00,WUHU216PEETBRO,2013-02-19 09:59:00,
2013-02-19 02:04:00,39.3,0.0,29.88,SE,132,3.4,8.8,0,0.00,,,0.00,WUHU216PEETBRO,2013-02-19 10:04:00,
2013-02-19 02:09:00,39.2,0.0,29.88,ESE,108,3.4,8.8,0,0.00,,,0.00,WUHU216PEETBRO,2013-02-19 10:09:00,
2013-02-19 02:14:00,39.1,0.0,29.88,ESE,121,4.2,6.3,0,0.00,,,0.00,WUHU216PEETBRO,2013-02-19 10:14:00,
2013-02-19 02:19:00,38.9,0.0,29.88,ESE,122,5.7,6.8,0,0.00,,,0.00,WUHU216PEETBRO,2013-02-19 10:19:00,
2013-02-19 02:24:00,38.9,0.0,29.87,ESE,110,7.8,7.8,0,0.00,,,0.00,WUHU216PEETBRO,2013-02-19 10:24:00,
2013-02-19 02:29:00,38.8,0.0,29.87,ESE,114,5.8,8.9,0,0.00,,,0.00,WUHU216PEETBRO,2013-02-19 10:29:00,
2013-02-19 02:34:00,38.6,0.0,29.87,ESE,121,5.1,8.9,0,0.00,,,0.00,WUHU216PEETBRO,2013-02-19 10:34:00,
2013-02-19 02:39:00,38.6,0.0,29.87,ESE,117,4.4,8.9,0,0.00,,,0.00,WUHU216PEETBRO,2013-02-19 10:39:00,
2013-02-19 02:44:00,38.6,0.0,29.87,SE,124,0.0,9.8,0,0.00,,,0.00,WUHU216PEETBRO,2013-02-19 10:44:00,
2013-02-19 02:49:00,38.9,0.0,29.87,ESE,103,2.6,9.8,0,0.00,,,0.00,WUHU216PEETBRO,2013-02-19 10:49:00,
2013-02-19 02:54:00,38.7,0.0,29.87,East,88,4.1,5.7,0,0.00,,,0.00,WUHU216PEETBRO,2013-02-19 10:54:00,
2013-02-19 02:59:00,38.9,0.0,29.86,ESE,117,3.4,6.8,0,0.00,,,0.00,WUHU216PEETBRO,2013-02-19 10:59:00,
2013-02-19 03:04:00,38.8,0.0,29.86,East,101,5.2,6.8,0,0.00,,,0.00,WUHU216PEETBRO,2013-02-19 11:04:00,
2013-02-19 03:09:00,38.4,0.0,29.86,ESE,117,5.3,7.5,0,0.00,,,0.00,WUHU216PEETBRO,2013-02-19 11:09:00,
2013-02-19 03:14:00,38.6,0.0,29.86,ESE,105,4.6,11.0,0,0.00,,,0.00,WUHU216PEETBRO,2013-02-19 11:14:00,
2013-02-19 03:19:00,38.5,0.0,29.86,ESE,110,6.2,11.0,0,0.00,,,0.00,WUHU216PEETBRO,2013-02-19 11:19:00,
2013-02-19 03:24:00,38.6,0.0,29.85,ESE,105,5.1,6.7,0,0.00,,,0.00,WUHU216PEETBRO,2013-02-19 11:24:00,
2013-02-19 03:29:00,38.8,0.0,29.85,ESE,121,5.0,7.0,0,0.00,,,0.00,WUHU216PEETBRO,2013-02-19 11:29:00,
2013-02-19 03:34:00,38.5,0.0,29.85,ESE,115,3.2,7.1,0,0.00,,,0.00,WUHU216PEETBRO,2013-02-19 11:34:00,
2013-02-19 03:39:00,38.6,0.0,29.85,ESE,112,5.2,7.1,0,0.00,,,0.00,WUHU216PEETBRO,2013-02-19 11:39:00,
2013-02-19 03:44:00,38.3,0.0,29.85,East,101,5.5,6.8,0,0.00,,,0.00,WUHU216PEETBRO,2013-02-19 11:44:00,
2013-02-19 03:49:00,38.3,0.0,29.85,East,79,5.9,7.4,0,0.00,,,0.00,WUHU216PEETBRO,2013-02-19 11:49:00,
2013-02-19 03:54:00,38.2,0.0,29.85,ESE,103,5.2,7.4,0,0.00,,,0.00,WUHU216PEETBRO,2013-02-19 11:54:00,
2013-02-19 03:59:00,38.3,0.0,29.85,East,88,5.4,8.5,0,0.00,,,0.00,WUHU216PEETBRO,2013-02-19 11:59:00,
2013-02-19 04:04:00,38.2,0.0,29.85,ESE,104,4.5,8.5,0,0.00,,,0.00,WUHU216PEETBRO,2013-02-19 12:04:00,
2013-02-19 04:09:00,38.0,0.0,29.85,ESE,117,5.3,7.0,0,0.00,,,0.00,WUHU216PEETBRO,2013-02-19 12:09:00,
2013-02-19 04:14:00,38.1,0.0,29.84,East,97,6.1,7.6,0,0.00,,,0.00,WUHU216PEETBRO,2013-02-19 12:14:00,
2013-02-19 04:19:00,37.9,0.0,29.84,ESE,112,6.0,8.0,0,0.00,,,0.00,WUHU216PEETBRO,2013-02-19 12:19:00,
2013-02-19 04:24:00,38.1,0.0,29.85,East,97,5.3,8.0,0,0.00,,,0.00,WUHU216PEETBRO,2013-02-19 12:24:00,
2013-02-19 04:29:00,38.0,0.0,29.85,ESE,111,6.1,7.9,0,0.00,,,0.00,WUHU216PEETBRO,2013-02-19 12:29:00,
2013-02-19 04:34:00,37.9,0.0,29.85,East,95,4.7,7.9,0,0.00,,,0.00,WUHU216PEETBRO,2013-02-19 12:34:00,
2013-02-19 04:39:00,38.0,0.0,29.85,ESE,114,4.9,7.4,0,0.00,,,0.00,WUHU216PEETBRO,2013-02-19 12:39:00,
2013-02-19 04:44:00,38.2,0.0,29.85,ESE,107,5.8,7.4,0,0.00,,,0.00,WUHU216PEETBRO,2013-02-19 12:44:00,
2013-02-19 04:49:00,38.2,0.0,29.85,SE,124,4.7,6.4,0,0.00,,,0.00,WUHU216PEETBRO,2013-02-19 12:49:00,
2013-02-19 04:54:00,38.2,0.0,29.85,ESE,119,4.2,6.4,0,0.00,,,0.00,WUHU216PEETBRO,2013-02-19 12:54:00,
2013-02-19 04:59:00,38.3,0.0,29.85,East,101,4.4,7.0,0,0.00,,,0.00,WUHU216PEETBRO,2013-02-19 12:59:00,
2013-02-19 05:04:00,37.9,0.0,29.85,ESE,103,6.3,8.0,0,0.00,,,0.00,WUHU216PEETBRO,2013-02-19 13:04:00,
2013-02-19 05:09:00,37.7,0.0,29.85,East,95,6.8,8.2,0,0.00,,,0.00,WUHU216PEETBRO,2013-02-19 13:09:00,
2013-02-19 05:14:00,37.7,0.0,29.85,East,79,6.9,9.0,0,0.00,,,0.00,WUHU216PEETBRO,2013-02-19 13:14:00,
2013-02-19 05:19:00,37.4,0.0,29.86,ESE,115,4.8,9.0,0,0.00,,,0.00,WUHU216PEETBRO,2013-02-19 13:19:00,
2013-02-19 05:24:00,37.9,0.0,29.86,ESE,122,5.3,7.6,0,0.00,,,0.00,WUHU216PEETBRO,2013-02-19 13:24:00,
2013-02-19 05:29:00,37.7,0.0,29.86,SSE,148,6.0,9.8,0,0.00,,,0.00,WUHU216PEETBRO,2013-02-19 13:29:00,
2013-02-19 05:34:00,37.6,0.0,29.86,ESE,111,5.7,9.8,0,0.00,,,0.00,WUHU216PEETBRO,2013-02-19 13:34:00,
2013-02-19 05:39:00,37.6,0.0,29.86,SSE,152,5.7,7.6,0,0.00,,,0.00,WUHU216PEETBRO,2013-02-19 13:39:00,
2013-02-19 05:44:00,37.7,0.0,29.86,East,98,6.4,8.7,0,0.00,,,0.00,WUHU216PEETBRO,2013-02-19 13:44:00,
2013-02-19 05:49:00,37.4,0.0,29.85,SE,129,4.7,8.7,0,0.00,,,0.00,WUHU216PEETBRO,2013-02-19 13:49:00,
2013-02-19 05:54:00,37.5,0.0,29.85,ESE,122,4.8,8.6,0,0.00,,,0.00,WUHU216PEETBRO,2013-02-19 13:54:00,
2013-02-19 05:59:00,37.3,0.0,29.85,East,101,6.3,7.7,0,0.00,,,0.00,WUHU216PEETBRO,2013-02-19 13:59:00,
2013-02-19 06:04:00,37.4,0.0,29.85,SE,127,5.4,10.0,0,0.00,,,0.00,WUHU216PEETBRO,2013-02-19 14:04:00,
2013-02-19 06:09:00,37.6,0.0,29.85,SE,135,4.9,10.0,0,0.00,,,0.00,WUHU216PEETBRO,2013-02-19 14:09:00,
2013-02-19 06:14:00,37.5,0.0,29.85,ESE,107,3.4,7.0,0,0.00,,,0.00,WUHU216PEETBRO,2013-02-19 14:14:00,
2013-02-19 06:19:00,37.4,0.0,29.85,SE,136,5.1,7.1,0,0.00,,,0.00,WUHU216PEETBRO,2013-02-19 14:19:00,
2013-02-19 06:24:00,37.7,0.0,29.84,SE,138,3.2,7.1,0,0.00,,,0.00,WUHU216PEETBRO,2013-02-19 14:24:00,
2013-02-19 06:29:00,37.7,0.0,29.84,SSE,148,8.5,8.5,0,0.00,,,0.00,WUHU216PEETBRO,2013-02-19 14:29:00,
2013-02-19 06:34:00,37.8,0.0,29.84,ESE,119,4.8,8.5,0,0.00,,,0.00,WUHU216PEETBRO,2013-02-19 14:34:00,
2013-02-19 06:39:00,37.9,0.0,29.84,ESE,117,5.5,6.0,0,0.00,,,0.00,WUHU216PEETBRO,2013-02-19 14:39:00,
2013-02-19 06:44:00,37.7,0.0,29.84,East,98,3.5,6.9,0,0.00,,,0.00,WUHU216PEETBRO,2013-02-19 14:44:00,
2013-02-19 06:49:00,37.7,0.0,29.84,SE,132,4.5,8.7,0,0.00,,,0.00,WUHU216PEETBRO,2013-02-19 14:49:00,
2013-02-19 06:54:00,37.8,0.0,29.83,ESE,114,3.5,8.7,0,0.00,,,0.00,WUHU216PEETBRO,2013-02-19 14:54:00,
2013-02-19 06:59:00,37.7,0.0,29.83,ESE,105,4.3,7.0,0,0.00,,,0.00,WUHU216PEETBRO,2013-02-19 14:59:00,
2013-02-19 07:04:00,37.6,0.0,29.83,ESE,119,4.4,7.6,0,0.00,,,0.00,WUHU216PEETBRO,2013-02-19 15:04:00,
2013-02-19 07:09:00,37.4,0.0,29.83,East,95,5.6,7.6,0,0.00,,,0.00,WUHU216PEETBRO,2013-02-19 15:09:00,
2013-02-19 07:14:00,37.5,0.0,29.83,East,90,4.2,8.7,0,0.00,,,0.00,WUHU216PEETBRO,2013-02-19 15:14:00,
2013-02-19 07:19:00,37.5,0.0,29.83,ESE,105,4.8,8.7,0,0.00,,,0.00,WUHU216PEETBRO,2013-02-19 15:19:00,
2013-02-19 07:24:00,37.6,0.0,29.83,East,95,2.9,7.5,0,0.00,,,0.00,WUHU216PEETBRO,2013-02-19 15:24:00,
2013-02-19 07:29:00,37.7,0.0,29.82,ESE,114,5.4,6.8,0,0.00,,,0.00,WUHU216PEETBRO,2013-02-19 15:29:00,
2013-02-19 07:34:00,37.9,0.0,29.83,SSE,149,4.2,6.8,0,0.00,,,0.00,WUHU216PEETBRO,2013-02-19 15:34:00,
2013-02-19 07:39:00,38.0,0.0,29.82,ENE,71,3.1,6.0,0,0.00,,,0.00,WUHU216PEETBRO,2013-02-19 15:39:00,
2013-02-19 07:44:00,37.7,0.0,29.82,ESE,121,4.2,5.5,0,0.00,,,0.00,WUHU216PEETBRO,2013-02-19 15:44:00,
2013-02-19 07:49:00,37.8,0.0,29.82,East,95,0.0,6.5,0,0.00,,,0.00,WUHU216PEETBRO,2013-02-19 15:49:00,
2013-02-19 07:54:00,37.7,0.0,29.82,ESE,121,3.4,6.5,0,0.00,,,0.00,WUHU216PEETBRO,2013-02-19 15:54:00,
2013-02-19 07:59:00,37.4,0.0,29.82,SE,135,5.3,6.7,0,0.00,,,0.00,WUHU216PEETBRO,2013-02-19 15:59:00,
2013-02-19 08:04:00,37.0,0.0,29.82,ESE,121,3.4,6.7,0,0.00,,,0.00,WUHU216PEETBRO,2013-02-19 16:04:00,
2013-02-19 08:09:00,37.1,0.0,29.82,East,79,2.2,5.7,0,0.00,,,0.00,WUHU216PEETBRO,2013-02-19 16:09:00,
2013-02-19 08:14:00,37.2,0.0,29.82,ESE,107,5.0,5.0,0,0.00,,,0.00,WUHU216PEETBRO,2013-02-19 16:14:00,
2013-02-19 08:19:00,37.5,0.0,29.82,SE,127,3.1,6.9,0,0.00,,,0.00,WUHU216PEETBRO,2013-02-19 16:19:00,
2013-02-19 08:24:00,37.5,0.0,29.81,ESE,110,3.4,6.9,0,0.01,,,0.01,WUHU216PEETBRO,2013-02-19 16:24:00,
2013-02-19 08:29:00,37.4,0.0,29.81,ESE,111,3.2,4.4,0,0.01,,,0.01,WUHU216PEETBRO,2013-02-19 16:29:00,
2013-02-19 08:34:00,37.4,0.0,29.80,East,94,0.0,3.4,0,0.01,,,0.01,WUHU216PEETBRO,2013-02-19 16:34:00,
2013-02-19 08:39:00,37.4,0.0,29.80,SE,138,0.0,3.3,0,0.01,,,0.01,WUHU216PEETBRO,2013-02-19 16:39:00,
2013-02-19 08:44:00,37.3,0.0,29.80,SE,138,0.0,3.0,0,0.01,,,0.01,WUHU216PEETBRO,2013-02-19 16:44:00,
2013-02-19 08:49:00,37.3,0.0,29.80,SE,127,0.0,6.0,0,0.01,,,0.01,WUHU216PEETBRO,2013-02-19 16:49:00,
2013-02-19 08:54:00,37.1,0.0,29.80,SE,127,0.0,6.0,0,0.01,,,0.01,WUHU216PEETBRO,2013-02-19 16:54:00,
2013-02-19 08:59:00,36.8,0.0,29.79,SE,127,0.0,0.0,0,0.01,,,0.01,WUHU216PEETBRO,2013-02-19 16:59:00,
2013-02-19 09:04:00,36.6,0.0,29.79,SE,146,0.0,3.3,0,0.02,,,0.02,WUHU216PEETBRO,2013-02-19 17:04:00,
2013-02-19 09:09:00,36.7,0.0,29.79,East,88,0.0,4.3,0,0.02,,,0.02,WUHU216PEETBRO,2013-02-19 17:09:00,
2013-02-19 09:14:00,36.8,0.0,29.79,NNE,33,0.0,4.3,0,0.02,,,0.02,WUHU216PEETBRO,2013-02-19 17:14:00,
2013-02-19 09:19:00,37.3,0.0,29.78,NNE,33,0.0,2.2,0,0.03,,,0.03,WUHU216PEETBRO,2013-02-19 17:19:00,
2013-02-19 09:24:00,37.2,0.0,29.78,NNE,33,0.0,0.0,0,0.02,,,0.03,WUHU216PEETBRO,2013-02-19 17:24:00,
2013-02-19 09:29:00,37.0,0.0,29.78,NNE,33,0.0,0.0,0,0.02,,,0.03,WUHU216PEETBRO,2013-02-19 17:29:00,
2013-02-19 09:34:00,36.6,0.0,29.78,East,95,0.0,7.3,0,0.03,,,0.04,WUHU216PEETBRO,2013-02-19 17:34:00,
2013-02-19 09:39:00,36.9,0.0,29.77,ESE,112,4.4,7.3,0,0.03,,,0.04,WUHU216PEETBRO,2013-02-19 17:39:00,
2013-02-19 09:44:00,37.0,0.0,29.77,ESE,112,0.0,5.5,0,0.03,,,0.04,WUHU216PEETBRO,2013-02-19 17:44:00,
2013-02-19 09:49:00,37.2,0.0,29.76,East,81,3.5,5.5,0,0.03,,,0.04,WUHU216PEETBRO,2013-02-19 17:49:00,
2013-02-19 09:54:00,37.2,0.0,29.76,East,101,0.0,5.1,0,0.04,,,0.05,WUHU216PEETBRO,2013-02-19 17:54:00,
2013-02-19 09:59:00,37.3,0.0,29.76,ENE,74,0.0,4.7,0,0.04,,,0.05,WUHU216PEETBRO,2013-02-19 17:59:00,
2013-02-19 10:04:00,37.5,0.0,29.76,East,90,0.0,5.2,0,0.03,,,0.05,WUHU216PEETBRO,2013-02-19 18:04:00,
2013-02-19 10:09:00,37.2,0.0,29.75,ESE,107,4.2,5.7,0,0.03,,,0.05,WUHU216PEETBRO,2013-02-19 18:09:00,
2013-02-19 10:14:00,37.1,0.0,29.75,ESE,110,4.7,7.6,0,0.03,,,0.05,WUHU216PEETBRO,2013-02-19 18:14:00,
2013-02-19 10:19:00,37.3,0.0,29.75,ESE,112,3.2,7.6,0,0.02,,,0.05,WUHU216PEETBRO,2013-02-19 18:19:00,
2013-02-19 10:24:00,37.4,0.0,29.75,ENE,77,3.2,6.3,0,0.03,,,0.06,WUHU216PEETBRO,2013-02-19 18:24:00,
2013-02-19 10:29:00,37.6,0.0,29.75,SE,135,4.3,6.5,0,0.03,,,0.06,WUHU216PEETBRO,2013-02-19 18:29:00,
2013-02-19 10:34:00,37.6,0.0,29.75,ESE,118,4.4,8.9,0,0.02,,,0.06,WUHU216PEETBRO,2013-02-19 18:34:00,
2013-02-19 10:39:00,37.8,0.0,29.75,ESE,107,0.0,8.9,0,0.02,,,0.06,WUHU216PEETBRO,2013-02-19 18:39:00,
2013-02-19 10:44:00,37.9,0.0,29.75,ENE,60,3.3,6.2,0,0.03,,,0.07,WUHU216PEETBRO,2013-02-19 18:44:00,
2013-02-19 10:49:00,37.8,0.0,29.75,ENE,64,3.2,6.0,0,0.03,,,0.07,WUHU216PEETBRO,2013-02-19 18:49:00,
2013-02-19 10:54:00,37.3,0.0,29.74,ESE,122,4.2,9.1,0,0.03,,,0.08,WUHU216PEETBRO,2013-02-19 18:54:00,
2013-02-19 10:59:00,37.4,0.0,29.74,SE,124,0.0,10.5,0,0.04,,,0.09,WUHU216PEETBRO,2013-02-19 18:59:00,
2013-02-19 11:04:00,37.7,0.0,29.73,SE,128,0.0,10.5,0,0.04,,,0.09,WUHU216PEETBRO,2013-02-19 19:04:00,
2013-02-19 11:09:00,37.8,0.0,29.73,ESE,117,0.0,6.8,0,0.04,,,0.09,WUHU216PEETBRO,2013-02-19 19:09:00,
2013-02-19 11:14:00,37.9,0.0,29.73,ESE,107,0.0,5.7,0,0.04,,,0.09,WUHU216PEETBRO,2013-02-19 19:14:00,
2013-02-19 11:19:00,38.1,0.0,29.73,East,100,3.4,6.1,0,0.05,,,0.10,WUHU216PEETBRO,2013-02-19 19:19:00,
2013-02-19 11:24:00,38.2,0.0,29.73,East,100,0.0,6.9,0,0.04,,,0.10,WUHU216PEETBRO,2013-02-19 19:24:00,
2013-02-19 11:29:00,38.2,0.0,29.72,ESE,119,0.0,7.8,0,0.04,,,0.10,WUHU216PEETBRO,2013-02-19 19:29:00,
2013-02-19 11:34:00,38.1,0.0,29.73,SE,143,0.0,7.8,0,0.04,,,0.10,WUHU216PEETBRO,2013-02-19 19:34:00,
2013-02-19 11:39:00,38.3,0.0,29.72,ESE,119,3.5,7.1,0,0.05,,,0.11,WUHU216PEETBRO,2013-02-19 19:39:00,
2013-02-19 11:44:00,38.2,0.0,29.72,SSE,149,0.0,8.4,0,0.04,,,0.11,WUHU216PEETBRO,2013-02-19 19:44:00,
2013-02-19 11:49:00,38.0,0.0,29.72,ESE,117,3.0,8.4,0,0.05,,,0.12,WUHU216PEETBRO,2013-02-19 19:49:00,
2013-02-19 11:54:00,37.9,0.0,29.72,South,173,7.3,8.4,0,0.05,,,0.13,WUHU216PEETBRO,2013-02-19 19:54:00,
2013-02-19 11:59:00,37.2,0.0,29.72,South,177,7.7,11.7,0,0.05,,,0.14,WUHU216PEETBRO,2013-02-19 19:59:00,
2013-02-19 12:04:00,36.0,0.0,29.72,South,170,8.5,14.7,0,0.05,,,0.14,WUHU216PEETBRO,2013-02-19 20:04:00,
2013-02-19 12:09:00,35.0,0.0,29.72,SE,145,5.2,14.7,0,0.06,,,0.15,WUHU216PEETBRO,2013-02-19 20:09:00,
2013-02-19 12:14:00,34.8,0.0,29.72,SSE,149,0.0,12.4,0,0.06,,,0.15,WUHU216PEETBRO,2013-02-19 20:14:00,
2013-02-19 12:19:00,34.3,0.0,29.72,SE,143,3.4,7.3,0,0.05,,,0.15,WUHU216PEETBRO,2013-02-19 20:19:00,
2013-02-19 12:24:00,34.1,0.0,29.72,SSE,165,0.0,6.9,0,0.05,,,0.15,WUHU216PEETBRO,2013-02-19 20:24:00,
2013-02-19 12:29:00,34.1,0.0,29.72,SSE,165,0.0,6.3,0,0.05,,,0.15,WUHU216PEETBRO,2013-02-19 20:29:00,
2013-02-19 12:34:00,33.9,0.0,29.72,SSE,165,0.0,0.0,0,0.05,,,0.15,WUHU216PEETBRO,2013-02-19 20:34:00,
2013-02-19 12:39:00,33.8,0.0,29.72,SSE,155,7.7,9.8,0,0.04,,,0.15,WUHU216PEETBRO,2013-02-19 20:39:00,
2013-02-19 12:44:00,33.7,0.0,29.72,SE,141,0.0,9.8,0,0.04,,,0.15,WUHU216PEETBRO,2013-02-19 20:44:00,
2013-02-19 12:49:00,33.6,0.0,29.72,SE,134,2.9,8.8,0,0.03,,,0.15,WUHU216PEETBRO,2013-02-19 20:49:00,
2013-02-19 12:54:00,33.8,0.0,29.72,South,173,5.8,8.9,0,0.02,,,0.15,WUHU216PEETBRO,2013-02-19 20:54:00,
2013-02-19 12:59:00,33.3,0.0,29.72,ESE,121,0.0,8.9,0,0.01,,,0.15,WUHU216PEETBRO,2013-02-19 20:59:00,
2013-02-19 13:04:00,33.2,0.0,29.72,ESE,121,0.0,5.4,0,0.01,,,0.15,WUHU216PEETBRO,2013-02-19 21:04:00,
2013-02-19 13:09:00,33.2,0.0,29.72,ESE,121,0.0,0.0,0,0.00,,,0.15,WUHU216PEETBRO,2013-02-19 21:09:00,
2013-02-19 13:14:00,33.6,0.0,29.71,ESE,121,0.0,0.0,0,0.00,,,0.15,WUHU216PEETBRO,2013-02-19 21:14:00,
2013-02-19 13:19:00,33.7,0.0,29.71,ESE,121,0.0,0.0,0,0.00,,,0.15,WUHU216PEETBRO,2013-02-19 21:19:00,
2013-02-19 13:24:00,33.8,0.0,29.71,ESE,121,0.0,0.0,0,0.00,,,0.15,WUHU216PEETBRO,2013-02-19 21:24:00,
2013-02-19 13:29:00,34.0,0.0,29.71,ESE,121,0.0,0.0,0,0.00,,,0.15,WUHU216PEETBRO,2013-02-19 21:29:00,
2013-02-19 13:34:00,34.2,0.0,29.71,ESE,121,0.0,0.0,0,0.00,,,0.15,WUHU216PEETBRO,2013-02-19 21:34:00,
2013-02-19 13:39:00,34.6,0.0,29.71,ESE,121,0.0,0.0,0,0.00,,,0.15,WUHU216PEETBRO,2013-02-19 21:39:00,
2013-02-19 13:44:00,34.5,0.0,29.71,ESE,121,0.0,0.0,0,0.00,,,0.15,WUHU216PEETBRO,2013-02-19 21:44:00,
2013-02-19 13:49:00,34.6,0.0,29.71,ESE,121,0.0,0.0,0,0.00,,,0.15,WUHU216PEETBRO,2013-02-19 21:49:00,
2013-02-19 13:54:00,34.7,0.0,29.70,ESE,121,0.0,0.0,0,0.00,,,0.15,WUHU216PEETBRO,2013-02-19 21:54:00,
2013-02-19 13:59:00,34.7,0.0,29.70,ESE,121,0.0,0.0,0,0.00,,,0.15,WUHU216PEETBRO,2013-02-19 21:59:00,
2013-02-19 14:04:00,35.0,0.0,29.70,ESE,121,0.0,0.0,0,0.00,,,0.15,WUHU216PEETBRO,2013-02-19 22:04:00,
2013-02-19 14:09:00,35.3,0.0,29.70,ESE,121,0.0,0.0,0,0.00,,,0.15,WUHU216PEETBRO,2013-02-19 22:09:00,
2013-02-19 14:14:00,35.5,0.0,29.70,ESE,121,0.0,0.0,0,0.00,,,0.15,WUHU216PEETBRO,2013-02-19 22:14:00,
2013-02-19 14:19:00,35.3,0.0,29.70,ESE,121,0.0,0.0,0,0.01,,,0.16,WUHU216PEETBRO,2013-02-19 22:19:00,
2013-02-19 14:24:00,35.3,0.0,29.70,ESE,121,0.0,0.0,0,0.01,,,0.16,WUHU216PEETBRO,2013-02-19 22:24:00,
2013-02-19 14:29:00,35.4,0.0,29.70,ESE,121,0.0,0.0,0,0.01,,,0.16,WUHU216PEETBRO,2013-02-19 22:29:00,
2013-02-19 14:34:00,35.5,0.0,29.70,ESE,121,0.0,0.0,0,0.01,,,0.16,WUHU216PEETBRO,2013-02-19 22:34:00,
2013-02-19 14:39:00,35.4,0.0,29.70,ESE,121,0.0,0.0,0,0.01,,,0.16,WUHU216PEETBRO,2013-02-19 22:39:00,
2013-02-19 14:44:00,35.1,0.0,29.70,ESE,121,0.0,0.0,0,0.01,,,0.16,WUHU216PEETBRO,2013-02-19 22:44:00,
2013-02-19 14:49:00,35.1,0.0,29.71,ESE,121,0.0,0.0,0,0.02,,,0.17,WUHU216PEETBRO,2013-02-19 22:49:00,
2013-02-19 14:54:00,35.4,0.0,29.71,ESE,121,0.0,0.0,0,0.02,,,0.17,WUHU216PEETBRO,2013-02-19 22:54:00,
2013-02-19 14:59:00,35.5,0.0,29.71,ESE,121,0.0,0.0,0,0.02,,,0.17,WUHU216PEETBRO,2013-02-19 22:59:00,
2013-02-19 15:04:00,35.7,0.0,29.70,ESE,121,0.0,0.0,0,0.02,,,0.17,WUHU216PEETBRO,2013-02-19 23:04:00,
2013-02-19 15:09:00,36.1,0.0,29.70,ESE,121,0.0,0.0,0,0.02,,,0.17,WUHU216PEETBRO,2013-02-19 23:09:00,
2013-02-19 15:14:00,36.0,0.0,29.70,ESE,121,0.0,0.0,0,0.02,,,0.17,WUHU216PEETBRO,2013-02-19 23:14:00,
2013-02-19 15:19:00,36.4,0.0,29.70,ESE,121,0.0,0.0,0,0.02,,,0.18,WUHU216PEETBRO,2013-02-19 23:19:00,
2013-02-19 15:24:00,36.7,0.0,29.70,ESE,121,0.0,0.0,0,0.02,,,0.18,WUHU216PEETBRO,2013-02-19 23:24:00,
2013-02-19 15:29:00,36.4,0.0,29.70,ESE,121,0.0,0.0,0,0.02,,,0.18,WUHU216PEETBRO,2013-02-19 23:29:00,
2013-02-19 15:34:00,36.7,0.0,29.70,ESE,121,0.0,0.0,0,0.02,,,0.18,WUHU216PEETBRO,2013-02-19 23:34:00,
2013-02-19 15:39:00,36.8,0.0,29.70,ESE,121,0.0,0.0,0,0.03,,,0.19,WUHU216PEETBRO,2013-02-19 23:39:00,
2013-02-19 15:44:00,37.0,0.0,29.70,ESE,121,0.0,0.0,0,0.03,,,0.19,WUHU216PEETBRO,2013-02-19 23:44:00,
2013-02-19 15:49:00,36.8,0.0,29.70,ESE,121,0.0,0.0,0,0.02,,,0.19,WUHU216PEETBRO,2013-02-19 23:49:00,
2013-02-19 15:54:00,37.1,0.0,29.70,ESE,121,0.0,0.0,0,0.03,,,0.20,WUHU216PEETBRO,2013-02-19 23:54:00,
2013-02-19 15:59:00,36.9,0.0,29.70,ESE,121,0.0,0.0,0,0.03,,,0.20,WUHU216PEETBRO,2013-02-19 23:59:00,
2013-02-19 16:04:00,37.0,0.0,29.70,ESE,121,0.0,0.0,0,0.03,,,0.20,WUHU216PEETBRO,2013-02-20 00:04:00,
2013-02-19 16:09:00,37.1,0.0,29.70,ESE,121,0.0,0.0,0,0.03,,,0.20,WUHU216PEETBRO,2013-02-20 00:09:00,
2013-02-19 16:14:00,37.5,0.0,29.70,ESE,121,0.0,0.0,0,0.03,,,0.20,WUHU216PEETBRO,2013-02-20 00:14:00,
2013-02-19 16:19:00,37.3,0.0,29.70,ESE,121,0.0,0.0,0,0.03,,,0.21,WUHU216PEETBRO,2013-02-20 00:19:00,
2013-02-19 16:24:00,37.3,0.0,29.70,ESE,121,0.0,0.0,0,0.03,,,0.21,WUHU216PEETBRO,2013-02-20 00:24:00,
2013-02-19 16:29:00,37.4,0.0,29.70,ESE,121,0.0,0.0,0,0.03,,,0.21,WUHU216PEETBRO,2013-02-20 00:29:00,
2013-02-19 16:34:00,37.5,0.0,29.70,ESE,121,0.0,0.0,0,0.03,,,0.21,WUHU216PEETBRO,2013-02-20 00:34:00,
2013-02-19 16:39:00,37.6,0.0,29.69,ESE,121,0.0,0.0,0,0.02,,,0.21,WUHU216PEETBRO,2013-02-20 00:39:00,
2013-02-19 16:44:00,37.4,0.0,29.69,ESE,121,0.0,0.0,0,0.03,,,0.22,WUHU216PEETBRO,2013-02-20 00:44:00,
2013-02-19 16:49:00,37.4,0.0,29.69,ESE,121,0.0,0.0,0,0.03,,,0.22,WUHU216PEETBRO,2013-02-20 00:49:00,
2013-02-19 16:54:00,37.6,0.0,29.69,ESE,121,0.0,0.0,0,0.02,,,0.22,WUHU216PEETBRO,2013-02-20 00:54:00,
2013-02-19 16:59:00,37.6,0.0,29.69,ESE,121,0.0,0.0,0,0.02,,,0.22,WUHU216PEETBRO,2013-02-20 00:59:00,
2013-02-19 17:04:00,37.4,0.0,29.69,ESE,121,0.0,0.0,0,0.02,,,0.22,WUHU216PEETBRO,2013-02-20 01:04:00,
2013-02-19 17:09:00,37.4,0.0,29.69,ESE,121,0.0,0.0,0,0.02,,,0.22,WUHU216PEETBRO,2013-02-20 01:09:00,
2013-02-19 17:14:00,37.2,0.0,29.69,ESE,121,0.0,0.0,0,0.02,,,0.22,WUHU216PEETBRO,2013-02-20 01:14:00,
2013-02-19 17:19:00,37.2,0.0,29.69,ESE,121,0.0,0.0,0,0.01,,,0.22,WUHU216PEETBRO,2013-02-20 01:19:00,
2013-02-19 17:24:00,36.9,0.0,29.69,ESE,121,0.0,0.0,0,0.02,,,0.23,WUHU216PEETBRO,2013-02-20 01:24:00,
2013-02-19 17:29:00,37.4,0.0,29.70,ESE,121,0.0,0.0,0,0.02,,,0.23,WUHU216PEETBRO,2013-02-20 01:29:00,
2013-02-19 17:34:00,37.5,0.0,29.70,ESE,121,0.0,0.0,0,0.02,,,0.23,WUHU216PEETBRO,2013-02-20 01:34:00,
2013-02-19 17:39:00,36.8,0.0,29.70,ESE,121,0.0,0.0,0,0.02,,,0.23,WUHU216PEETBRO,2013-02-20 01:39:00,
2013-02-19 17:44:00,36.6,0.0,29.70,ESE,121,0.0,0.0,0,0.01,,,0.23,WUHU216PEETBRO,2013-02-20 01:44:00,
2013-02-19 17:49:00,36.5,0.0,29.70,ESE,121,0.0,0.0,0,0.01,,,0.23,WUHU216PEETBRO,2013-02-20 01:49:00,
2013-02-19 17:54:00,36.6,0.0,29.70,ESE,121,0.0,0.0,0,0.01,,,0.23,WUHU216PEETBRO,2013-02-20 01:54:00,
2013-02-19 17:59:00,36.3,0.0,29.70,ESE,121,0.0,0.0,0,0.01,,,0.23,WUHU216PEETBRO,2013-02-20 01:59:00,
2013-02-19 18:04:00,36.1,0.0,29.70,ESE,121,0.0,0.0,0,0.01,,,0.23,WUHU216PEETBRO,2013-02-20 02:04:00,
2013-02-19 18:09:00,36.2,0.0,29.70,ESE,121,0.0,0.0,0,0.01,,,0.23,WUHU216PEETBRO,2013-02-20 02:09:00,
2013-02-19 18:14:00,35.9,0.0,29.70,ESE,121,0.0,0.0,0,0.01,,,0.23,WUHU216PEETBRO,2013-02-20 02:14:00,
2013-02-19 18:19:00,36.0,0.0,29.70,ESE,121,0.0,0.0,0,0.01,,,0.23,WUHU216PEETBRO,2013-02-20 02:19:00,
2013-02-19 18:24:00,35.7,0.0,29.71,ESE,121,0.0,0.0,0,0.00,,,0.23,WUHU216PEETBRO,2013-02-20 02:24:00,
2013-02-19 18:29:00,35.9,0.0,29.71,ESE,121,0.0,0.0,0,0.00,,,0.23,WUHU216PEETBRO,2013-02-20 02:29:00,
2013-02-19 18:34:00,35.7,0.0,29.71,ESE,121,0.0,0.0,0,0.00,,,0.23,WUHU216PEETBRO,2013-02-20 02:34:00,
2013-02-19 18:39:00,35.4,0.0,29.71,ESE,121,0.0,0.0,0,0.00,,,0.23,WUHU216PEETBRO,2013-02-20 02:39:00,
2013-02-19 18:44:00,35.3,0.0,29.71,ESE,121,0.0,0.0,0,0.00,,,0.23,WUHU216PEETBRO,2013-02-20 02:44:00,
2013-02-19 18:49:00,35.3,0.0,29.71,ESE,121,0.0,0.0,0,0.00,,,0.23,WUHU216PEETBRO,2013-02-20 02:49:00,
2013-02-19 18:54:00,35.2,0.0,29.71,ESE,121,0.0,0.0,0,0.00,,,0.23,WUHU216PEETBRO,2013-02-20 02:54:00,
2013-02-19 18:59:00,35.2,0.0,29.71,ESE,121,0.0,0.0,0,0.00,,,0.23,WUHU216PEETBRO,2013-02-20 02:59:00,
2013-02-19 19:04:00,35.2,0.0,29.71,ESE,121,0.0,0.0,0,0.00,,,0.23,WUHU216PEETBRO,2013-02-20 03:04:00,
2013-02-19 19:09:00,35.2,0.0,29.71,ESE,121,0.0,0.0,0,0.00,,,0.23,WUHU216PEETBRO,2013-02-20 03:09:00,
2013-02-19 19:14:00,35.2,0.0,29.71,ESE,121,0.0,0.0,0,0.00,,,0.23,WUHU216PEETBRO,2013-02-20 03:14:00,
2013-02-19 19:19:00,35.5,0.0,29.70,ESE,121,0.0,0.0,0,0.00,,,0.23,WUHU216PEETBRO,2013-02-20 03:19:00,
2013-02-19 19:24:00,35.3,0.0,29.71,ESE,121,0.0,0.0,0,0.00,,,0.23,WUHU216PEETBRO,2013-02-20 03:24:00,
2013-02-19 19:29:00,35.1,0.0,29.70,ESE,121,0.0,0.0,0,0.00,,,0.23,WUHU216PEETBRO,2013-02-20 03:29:00,
2013-02-19 19:34:00,35.1,0.0,29.70,ESE,121,0.0,0.0,0,0.00,,,0.23,WUHU216PEETBRO,2013-02-20 03:34:00,
2013-02-19 19:39:00,34.9,0.0,29.70,ESE,121,0.0,0.0,0,0.00,,,0.23,WUHU216PEETBRO,2013-02-20 03:39:00,
2013-02-19 19:44:00,34.6,0.0,29.70,ESE,121,0.0,0.0,0,0.00,,,0.23,WUHU216PEETBRO,2013-02-20 03:44:00,
2013-02-19 19:49:00,34.7,0.0,29.70,ESE,121,0.0,0.0,0,0.00,,,0.23,WUHU216PEETBRO,2013-02-20 03:49:00,
2013-02-19 19:54:00,34.2,0.0,29.70,ESE,121,0.0,0.0,0,0.00,,,0.23,WUHU216PEETBRO,2013-02-20 03:54:00,
2013-02-19 19:59:00,34.1,0.0,29.70,ESE,121,0.0,0.0,0,0.00,,,0.23,WUHU216PEETBRO,2013-02-20 03:59:00,
2013-02-19 20:04:00,34.1,0.0,29.71,ESE,121,0.0,0.0,0,0.00,,,0.23,WUHU216PEETBRO,2013-02-20 04:04:00,
2013-02-19 20:09:00,34.1,0.0,29.70,ESE,121,0.0,0.0,0,0.00,,,0.23,WUHU216PEETBRO,2013-02-20 04:09:00,
2013-02-19 20:14:00,34.0,0.0,29.71,ESE,121,0.0,0.0,0,0.00,,,0.23,WUHU216PEETBRO,2013-02-20 04:14:00,
2013-02-19 20:19:00,34.2,0.0,29.71,ESE,121,0.0,0.0,0,0.00,,,0.23,WUHU216PEETBRO,2013-02-20 04:19:00,
2013-02-19 20:24:00,34.4,0.0,29.71,ESE,121,0.0,0.0,0,0.00,,,0.23,WUHU216PEETBRO,2013-02-20 04:24:00,
2013-02-19 20:29:00,34.3,0.0,29.72,ESE,121,0.0,0.0,0,0.00,,,0.23,WUHU216PEETBRO,2013-02-20 04:29:00,
2013-02-19 20:34:00,34.3,0.0,29.72,ESE,121,0.0,0.0,0,0.00,,,0.23,WUHU216PEETBRO,2013-02-20 04:34:00,
2013-02-19 20:39:00,34.1,0.0,29.72,ESE,121,0.0,0.0,0,0.00,,,0.23,WUHU216PEETBRO,2013-02-20 04:39:00,
2013-02-19 20:44:00,34.3,0.0,29.72,ESE,121,0.0,0.0,0,0.00,,,0.23,WUHU216PEETBRO,2013-02-20 04:44:00,
2013-02-19 20:49:00,34.3,0.0,29.72,ESE,121,0.0,0.0,0,0.00,,,0.23,WUHU216PEETBRO,2013-02-20 04:49:00,
2013-02-19 20:54:00,34.3,0.0,29.72,ESE,121,0.0,0.0,0,0.00,,,0.23,WUHU216PEETBRO,2013-02-20 04:54:00,
2013-02-19 20:59:00,34.3,0.0,29.72,ESE,121,0.0,0.0,0,0.00,,,0.23,WUHU216PEETBRO,2013-02-20 04:59:00,
2013-02-19 21:00:00,34.3,0.0,29.72,ESE,121,0.0,0.0,0,0.00,,,0.23,WUHU216PEETBRO,2013-02-20 05:00:00,
2013-02-19 21:05:00,34.0,0.0,29.72,ESE,121,0.0,0.0,0,0.00,,,0.23,WUHU216PEETBRO,2013-02-20 05:05:00,
2013-02-19 21:10:00,34.0,0.0,29.72,ESE,121,0.0,0.0,0,0.00,,,0.23,WUHU216PEETBRO,2013-02-20 05:10:00,
2013-02-19 21:15:00,34.0,0.0,29.71,ESE,121,0.0,0.0,0,0.00,,,0.23,WUHU216PEETBRO,2013-02-20 05:15:00,
2013-02-19 21:20:00,33.9,0.0,29.72,ESE,121,0.0,0.0,0,0.00,,,0.23,WUHU216PEETBRO,2013-02-20 05:20:00,
2013-02-19 21:25:00,33.9,0.0,29.72,ESE,121,0.0,0.0,0,0.00,,,0.23,WUHU216PEETBRO,2013-02-20 05:25:00,
2013-02-19 21:30:00,34.1,0.0,29.71,ESE,121,0.0,0.0,0,0.00,,,0.23,WUHU216PEETBRO,2013-02-20 05:30:00,
2013-02-19 21:35:00,33.9,0.0,29.71,ESE,121,0.0,0.0,0,0.00,,,0.23,WUHU216PEETBRO,2013-02-20 05:35:00,
2013-02-19 21:40:00,33.8,0.0,29.72,ESE,121,0.0,0.0,0,0.00,,,0.23,WUHU216PEETBRO,2013-02-20 05:40:00,
2013-02-19 21:45:00,33.6,0.0,29.71,ESE,121,0.0,0.0,0,0.00,,,0.23,WUHU216PEETBRO,2013-02-20 05:45:00,
2013-02-19 21:50:00,33.5,0.0,29.72,ESE,121,0.0,0.0,0,0.00,,,0.23,WUHU216PEETBRO,2013-02-20 05:50:00,
2013-02-19 21:55:00,33.5,0.0,29.72,ESE,121,0.0,0.0,0,0.00,,,0.23,WUHU216PEETBRO,2013-02-20 05:55:00,
2013-02-19 22:00:00,33.6,0.0,29.72,ESE,121,0.0,0.0,0,0.00,,,0.23,WUHU216PEETBRO,2013-02-20 06:00:00,
2013-02-19 22:05:00,33.3,0.0,29.72,ESE,121,0.0,0.0,0,0.00,,,0.23,WUHU216PEETBRO,2013-02-20 06:05:00,
2013-02-19 22:10:00,33.5,0.0,29.72,ESE,121,0.0,0.0,0,0.00,,,0.23,WUHU216PEETBRO,2013-02-20 06:10:00,
2013-02-19 22:15:00,33.8,0.0,29.72,ESE,121,0.0,0.0,0,0.00,,,0.23,WUHU216PEETBRO,2013-02-20 06:15:00,
2013-02-19 22:20:00,33.8,0.0,29.73,ESE,121,0.0,0.0,0,0.00,,,0.23,WUHU216PEETBRO,2013-02-20 06:20:00,
2013-02-19 22:25:00,33.4,0.0,29.73,ESE,121,0.0,0.0,0,0.00,,,0.23,WUHU216PEETBRO,2013-02-20 06:25:00,
2013-02-19 22:30:00,33.5,0.0,29.73,ESE,121,0.0,0.0,0,0.00,,,0.23,WUHU216PEETBRO,2013-02-20 06:30:00,
2013-02-19 22:35:00,33.2,0.0,29.73,ESE,121,0.0,0.0,0,0.00,,,0.23,WUHU216PEETBRO,2013-02-20 06:35:00,
2013-02-19 22:40:00,33.1,0.0,29.73,ESE,121,0.0,0.0,0,0.00,,,0.23,WUHU216PEETBRO,2013-02-20 06:40:00,
2013-02-19 22:45:00,33.0,0.0,29.73,ESE,121,0.0,0.0,0,0.00,,,0.23,WUHU216PEETBRO,2013-02-20 06:45:00,
2013-02-19 22:50:00,33.3,0.0,29.73,ESE,121,0.0,0.0,0,0.00,,,0.23,WUHU216PEETBRO,2013-02-20 06:50:00,
2013-02-19 22:55:00,32.9,0.0,29.73,ESE,121,0.0,0.0,0,0.00,,,0.23,WUHU216PEETBRO,2013-02-20 06:55:00,
2013-02-19 23:00:00,33.3,0.0,29.73,ESE,121,0.0,0.0,0,0.00,,,0.23,WUHU216PEETBRO,2013-02-20 07:00:00,
2013-02-19 23:05:00,33.2,0.0,29.73,ESE,121,0.0,0.0,0,0.00,,,0.23,WUHU216PEETBRO,2013-02-20 07:05:00,
2013-02-19 23:10:00,33.3,0.0,29.74,ESE,121,0.0,0.0,0,0.00,,,0.23,WUHU216PEETBRO,2013-02-20 07:10:00,
2013-02-19 23:15:00,33.2,0.0,29.74,ESE,121,0.0,0.0,0,0.00,,,0.23,WUHU216PEETBRO,2013-02-20 07:15:00,
2013-02-19 23:20:00,33.4,0.0,29.73,ESE,121,0.0,0.0,0,0.00,,,0.23,WUHU216PEETBRO,2013-02-20 07:20:00,
2013-02-19 23:25:00,33.4,0.0,29.74,ESE,121,0.0,0.0,0,0.00,,,0.23,WUHU216PEETBRO,2013-02-20 07:25:00,
2013-02-19 23:30:00,33.5,0.0,29.74,ESE,121,0.0,0.0,0,0.00,,,0.23,WUHU216PEETBRO,2013-02-20 07:30:00,
2013-02-19 23:35:00,33.2,0.0,29.74,ESE,121,0.0,0.0,0,0.00,,,0.23,WUHU216PEETBRO,2013-02-20 07:35:00,
2013-02-19 23:40:00,33.3,0.0,29.75,ESE,121,0.0,0.0,0,0.00,,,0.23,WUHU216PEETBRO,2013-02-20 07:40:00,
2013-02-19 23:45:00,33.1,0.0,29.75,ESE,121,0.0,0.0,0,0.00,,,0.23,WUHU216PEETBRO,2013-02-20 07:45:00,
2013-02-19 23:50:00,33.0,0.0,29.75,ESE,121,0.0,0.0,0,0.00,,,0.23,WUHU216PEETBRO,2013-02-20 07:50:00,
2013-02-19 23:55:00,33.3,0.0,29.75,ESE,121,0.0,0.0,0,0.00,,,0.23,WUHU216PEETBRO,2013-02-20 07:55:00,